Peru, IN

1:01 PM EDT on October 21, 2017 (GMT -0400)
Grissom Air Reserve Base

Weather History for KGUS - April, 2013

Change the Weather History Date:

Wednesday, April 24, 2013

  Actual Average Record
Temperature  
Mean Temperature 41 °F -  
Max Temperature 47 °F 63 °F 77 °F (1998)
Min Temperature 36 °F 43 °F 32 °F (2005)
Degree Days  
Heating Degree Days 24    
Moisture  
Dew Point 39 °F    
Average Humidity 93    
Maximum Humidity 100    
Minimum Humidity 57    
Precipitation  
Precipitation 0.42 in - - ()
Sea Level Pressure  
Sea Level Pressure 29.94 in    
Wind  
Wind Speed 13 mph (NW)    
Max Wind Speed 20 mph    
Max Gust Speed 24 mph    
Visibility 9 miles    
Events Rain , Snow    
Averages and records for this station are not official NWS values.
T = Trace of Precipitation, MM = Missing Value Source: NWS Daily Summary

Daily Weather History Graph

Daily Weather History Graph

Search for Another Location

Airport or City:

Trip Planner

Search our weather history database for the weather conditions in past years. The results will help you decide how hot, cold, wet, or windy it might be!

Date:

Astronomy

Apr. 24, 2013 Rise Set
Actual Time 6:52 AM EDT 8:33 PM EDT
Civil Twilight 6:23 AM EDT 9:02 PM EDT
Nautical Twilight 5:48 AM EDT 9:38 PM EDT
Astronomical Twilight 5:10 AM EDT 10:15 PM EDT
Moon 7:36 PM EDT (4/24) 5:56 AM EDT (4/24)
Length of Visible Light 14h 39m
Length of Day
13h 41m
Waxing Gibbous, 98% of the Moon is Illuminated
Apr 24
Waxing Gibbous
Apr 25
Full
May 2
Last Quarter
May 9
New
May 18
First Quarter

Hourly Weather History & Observations

Time (EDT) Temp. Windchill Dew Point Humidity Pressure Visibility Wind Dir Wind Speed Gust Speed Precip Events Conditions
12:03 AM 44.6 °F 38.1 °F 44.6 °F 100% 29.83 in 10.0 mi NNE 13.8 mph - N/A Rain Light Rain
12:08 AM 44.6 °F 37.8 °F 44.6 °F 100% 29.83 in 10.0 mi North 15.0 mph - N/A Rain Light Rain
12:10 AM 44.6 °F 38.1 °F 44.6 °F 100% 29.83 in 10.0 mi NNE 13.8 mph - N/A Rain Rain
12:12 AM 44.6 °F 38.4 °F 44.6 °F 100% 29.83 in 9.0 mi North 12.7 mph - N/A Rain Rain
12:18 AM 44.6 °F 38.1 °F 44.6 °F 100% 29.83 in 7.0 mi North 13.8 mph - N/A Rain Heavy Rain
12:25 AM 44.6 °F 38.8 °F 44.6 °F 100% 29.83 in 7.0 mi North 11.5 mph - N/A Rain Rain
12:30 AM 44.6 °F 38.1 °F 44.6 °F 100% 29.82 in 9.0 mi North 13.8 mph - N/A Rain Light Rain
12:37 AM 44.6 °F 39.2 °F 44.6 °F 100% 29.83 in 10.0 mi North 10.4 mph - N/A Rain Light Rain
12:52 AM 42.8 °F 37.5 °F 42.8 °F 100% 29.83 in 10.0 mi North 9.2 mph - N/A Rain Light Rain
12:55 AM 43.5 °F 37.9 °F 43.5 °F 100% 29.84 in 10.0 mi North 10.4 mph - 0.07 in Rain Light Rain
1:03 AM 42.8 °F 36.2 °F 42.8 °F 100% 29.82 in 9.0 mi North 12.7 mph - N/A Rain Rain
1:14 AM 42.8 °F 36.6 °F 42.8 °F 100% 29.83 in 10.0 mi North 11.5 mph - N/A Rain Light Rain
1:19 AM 42.8 °F 37.0 °F 42.8 °F 100% 29.83 in 10.0 mi North 10.4 mph - N/A Rain Light Rain
1:32 AM 42.8 °F 37.5 °F 42.8 °F 100% 29.83 in 10.0 mi North 9.2 mph - N/A Rain Light Rain
1:50 AM 42.8 °F 36.6 °F 42.8 °F 100% 29.82 in 9.0 mi North 11.5 mph - N/A Rain Rain
1:55 AM 42.6 °F 36.8 °F 42.6 °F 100% 29.82 in 9.0 mi North 10.4 mph - 0.06 in Rain Light Rain
2:03 AM 42.8 °F 36.2 °F 42.8 °F 100% 29.83 in 10.0 mi NNW 12.7 mph - N/A Rain Light Rain
2:13 AM 42.8 °F 36.2 °F 42.8 °F 100% 29.82 in 10.0 mi North 12.7 mph - N/A Rain Rain
2:28 AM 42.8 °F 37.5 °F 42.8 °F 100% 29.82 in 10.0 mi NNW 9.2 mph - N/A Rain Light Rain
2:55 AM 41.4 °F 35.7 °F 41.4 °F 100% 29.84 in 10.0 mi NW 9.2 mph - 0.04 in Rain Light Rain
3:55 AM 40.3 °F 33.9 °F 40.3 °F 100% 29.84 in 10.0 mi NNW 10.4 mph - 0.04 in Rain Rain
4:55 AM 39.4 °F 31.1 °F 39.4 °F 100% 29.85 in 10.0 mi NNW 15.0 mph - 0.06 in Rain Rain
5:55 AM 39.0 °F 31.8 °F 39.0 °F 100% 29.88 in 10.0 mi NW 11.5 mph - 0.07 in Rain Light Rain
5:57 AM 39.2 °F 32.0 °F 39.2 °F 100% 29.88 in 10.0 mi NW 11.5 mph - N/A Rain Light Rain
6:30 AM 39.2 °F 31.6 °F 39.2 °F 100% 29.86 in 10.0 mi NNW 12.7 mph - N/A Rain Light Rain
6:55 AM 38.3 °F 30.1 °F 38.3 °F 100% 29.89 in 7.0 mi NNW 13.8 mph - 0.04 in Rain Light Rain
7:55 AM 37.4 °F 28.9 °F 37.4 °F 100% 29.91 in 5.0 mi NNW 13.8 mph - 0.01 in Rain Light Rain
8:17 AM 37.4 °F 29.8 °F 37.4 °F 100% 29.90 in 10.0 mi NNW 11.5 mph - N/A Rain Light Rain
8:20 AM 37.4 °F 28.5 °F 37.4 °F 100% 29.90 in 10.0 mi NNW 15.0 mph - N/A   Overcast
8:55 AM 37.2 °F 29.6 °F 35.8 °F 95% 29.91 in 10.0 mi NNW 11.5 mph - 0.01 in   Overcast
9:55 AM 37.2 °F 29.1 °F 34.9 °F 91% 29.91 in 10.0 mi NNW 12.7 mph - N/A   Overcast
10:31 AM 37.4 °F 28.5 °F 33.8 °F 87% 29.92 in 10.0 mi WNW 15.0 mph - N/A   Overcast
10:55 AM 37.9 °F 29.2 °F 34.3 °F 87% 29.97 in 10.0 mi NW 15.0 mph - 0.00 in Rain Light Rain
11:18 AM 37.4 °F 27.2 °F 35.6 °F 93% 29.99 in 7.0 mi WNW 19.6 mph - N/A Rain , Snow Light Rain
11:52 AM 37.4 °F 27.8 °F 35.6 °F 93% 29.99 in 6.0 mi NW 17.3 mph 24.2 mph N/A Rain Light Rain
11:55 AM 36.7 °F 27.2 °F 35.8 °F 97% 29.99 in 6.0 mi NW 16.1 mph 24.2 mph 0.01 in Rain Light Rain
12:55 PM 37.9 °F 28.9 °F 36.0 °F 93% 30.01 in 6.0 mi NW 16.1 mph 20.7 mph 0.01 in Rain Light Rain
1:55 PM 40.8 °F 32.9 °F 37.8 °F 89% 30.04 in 10.0 mi NW 15.0 mph - 0.00 in   Light Drizzle
2:09 PM 41.0 °F 33.1 °F 37.4 °F 87% 30.05 in 10.0 mi WNW 15.0 mph 20.7 mph N/A Rain Light Rain
2:26 PM 41.0 °F 33.5 °F 37.4 °F 87% 30.05 in 7.0 mi WNW 13.8 mph - N/A Rain Light Rain
2:55 PM 41.5 °F 33.5 °F 38.1 °F 88% 30.06 in 7.0 mi West 16.1 mph - 0.00 in Rain Light Rain
2:58 PM 41.0 °F 33.1 °F 37.4 °F 87% 30.06 in 7.0 mi WNW 15.0 mph - N/A Rain Light Rain
3:55 PM 43.5 °F 36.1 °F 36.7 °F 77% 30.07 in 10.0 mi WNW 16.1 mph - 0.00 in   Overcast
4:12 PM 42.8 °F 35.8 °F 35.6 °F 76% 30.07 in 10.0 mi WNW 13.8 mph - N/A   Overcast
4:55 PM 43.7 °F 37.7 °F 36.0 °F 74% 30.08 in 10.0 mi West 11.5 mph - N/A   Overcast
5:55 PM 46.9 °F - 34.3 °F 62% 30.10 in 10.0 mi West 16.1 mph 24.2 mph N/A   Partly Cloudy
6:55 PM 46.2 °F 39.5 °F 31.6 °F 57% 30.12 in 10.0 mi WNW 16.1 mph - N/A   Scattered Clouds
7:55 PM 44.2 °F 38.8 °F 32.0 °F 62% 30.14 in 10.0 mi West 10.4 mph - N/A   Scattered Clouds
8:55 PM 41.2 °F 36.0 °F 34.9 °F 78% 30.16 in 10.0 mi West 8.1 mph - N/A   Scattered Clouds
9:55 PM 41.4 °F 35.7 °F 34.2 °F 76% 30.20 in 10.0 mi WSW 9.2 mph - N/A   Overcast
10:55 PM 38.1 °F 32.9 °F 35.1 °F 89% 30.21 in 10.0 mi SSW 6.9 mph - N/A   Partly Cloudy
11:55 PM 38.7 °F 32.9 °F 34.7 °F 86% 30.21 in 10.0 mi SW 8.1 mph - N/A   Overcast